This demonstration page uses our WeatherBlox Daily Observations layout. Learn more.

Left ArrowRight Arrow

38.89511, -77.03637

Hourly Observations for July 13, 2018

Temp ( °F °C ) Dew Point ( °F °C ) Humidity (%) Winds ( mph kmh ) Pressure ( in mb ) Visibility ( mi km ) Precip ( " mm )
12:52 am 00:52 Clear 75 23.9 66 18.9 74 74 SE 7 11 30.21 1023 10 16 0.00 0.00
1:52 am 01:52 Clear 74 23.3 65 18.3 74 74 ESE 8 13 30.20 1023 10 16 0.00 0.00
2:52 am 02:52 Clear 73 22.8 66 18.9 79 79 E 5 7 30.20 1023 10 16 0.00 0.00
3:52 am 03:52 Clear 72 22.2 65 18.3 79 79 ENE 5 7 30.20 1023 10 16 0.00 0.00
4:52 am 04:52 Mostly Clear 72 22.2 65 18.3 79 79 ENE 5 7 30.21 1023 10 16 0.00 0.00
5:38 am 05:38 Mostly Cloudy 72 22.2 66 18.9 82 82 ENE 5 7 30.21 1023 10 16 0.00 0.00
5:52 am 05:52 Cloudy 72 22.2 65 18.3 79 79 ENE 5 7 30.22 1023 10 16 0.00 0.00
6:29 am 06:29 Cloudy 72 22.2 66 18.9 82 82 ENE 6 9 30.24 1024 10 16 0.00 0.00
6:52 am 06:52 Cloudy 72 22.2 66 18.9 82 82 ENE 7 11 30.23 1024 10 16 0.00 0.00
7:52 am 07:52 Mostly Cloudy 74 23.3 67 19.4 79 79 NE 6 9 30.23 1024 10 16 0.00 0.00
8:52 am 08:52 Mostly Cloudy 76 24.4 65 18.3 69 69 VRB 3 6 30.24 1024 10 16 0.00 0.00
9:52 am 09:52 Sunny 80 26.7 62 16.7 54 54 VRB 7 11 30.23 1024 10 16 0.00 0.00
10:52 am 10:52 Mostly Cloudy 83 28.3 60 15.6 46 46 E 8 13 30.25 1024 10 16 0.00 0.00
11:52 am 11:52 Mostly Cloudy 84 28.9 56 13.3 38 38 SE 5 7 30.24 1024 10 16 0.00 0.00
12:52 pm 12:52 Mostly Cloudy 85 29.4 55 12.8 36 36 ESE 5 7 30.23 1024 10 16 0.00 0.00
1:52 pm 13:52 Mostly Cloudy 86 30 56 13.3 36 36 SE 9 15 30.22 1023 10 16 0.00 0.00
2:52 pm 14:52 Partly Cloudy 87 30.6 58 14.4 37 37 SE 8 13 30.21 1023 10 16 0.00 0.00
3:52 pm 15:52 Mostly Cloudy 88 31.1 57 13.9 35 35 SSE 9 15 30.20 1023 10 16 0.00 0.00
4:52 pm 16:52 Mostly Cloudy 88 31.1 59 15 38 38 SSE 7 11 30.20 1023 10 16 0.00 0.00
5:52 pm 17:52 Mostly Cloudy 86 30 59 15 40 40 SE 6 9 30.18 1022 10 16 0.00 0.00
6:52 pm 18:52 Partly Cloudy 85 29.4 60 15.6 43 43 SSE 9 15 30.17 1022 10 16 0.00 0.00
7:52 pm 19:52 Partly Cloudy 83 28.3 62 16.7 49 49 SSE 10 17 30.17 1022 10 16 0.00 0.00
8:52 pm 20:52 Mostly Cloudy 81 27.2 63 17.2 54 54 SSE 8 13 30.18 1022 10 16 0.00 0.00
9:52 pm 21:52 Mostly Clear 79 26.1 63 17.2 58 58 S 12 19 30.19 1022 10 16 0.00 0.00
10:52 pm 22:52 Mostly Clear 77 25 63 17.2 62 62 SSE 10 17 30.19 1023 10 16 0.00 0.00
11:52 pm 23:52 Clear 76 24.4 62 16.7 62 62 S 10 17 30.19 1023 10 16 0.00 0.00

Powered by AerisWeather